KB3AWQ Weather Reports


Display with metric or nautical units.
time (UTC)temp
F
wind
direction
speed
MPH
gust
MPH
rain 1hr
in
rain 24hr
in
rain mn
in
humidity
%
barometer
mb
20260507104926 42 0 0.0 0.0 0.00 0.00 0.00 97 1012.6
20260507104426 41 0 0.0 0.0 0.00 0.00 0.00 98 1012.6
20260507103927 41 298 0.0 1.0 0.00 0.00 0.00 98 1012.5
20260507103426 41 0 0.0 0.0 0.00 0.00 0.00 98 1012.4
20260507102926 40 0 0.0 0.0 0.00 0.00 0.00 96 1012.3
20260507102426 41 0 0.0 0.0 0.00 0.00 0.00 96 1012.3
20260507101928 41 0 0.0 0.0 0.00 0.00 0.00 96 1012.3
20260507101428 41 0 0.0 0.0 0.00 0.00 0.00 95 1012.2
20260507100927 41 0 0.0 0.0 0.00 0.00 0.00 95 1012.2
20260507100427 42 0 0.0 0.0 0.00 0.00 0.00 95 1012.2
20260507095929 42 0 0.0 0.0 0.00 0.00 0.00 94 1012.2
20260507095427 42 0 0.0 0.0 0.00 0.00 0.00 94 1012.2
20260507094926 43 0 0.0 0.0 0.00 0.00 0.00 93 1012.2
20260507094427 43 0 0.0 0.0 0.00 0.00 0.00 93 1012.2
20260507093926 44 316 1.0 1.0 0.00 0.00 0.00 92 1012.2
20260507093426 44 0 0.0 0.0 0.00 0.00 0.00 91 1012.3
20260507092927 44 0 0.0 0.0 0.00 0.00 0.00 91 1012.4
20260507092427 44 0 0.0 0.0 0.00 0.00 0.00 92 1012.4
20260507091926 44 0 0.0 0.0 0.00 0.00 0.00 92 1012.4
20260507091427 44 0 0.0 0.0 0.00 0.00 0.00 92 1012.4
20260507090926 44 0 0.0 0.0 0.00 0.00 0.00 92 1012.3
20260507090426 44 0 0.0 0.0 0.00 0.00 0.00 92 1012.2
20260507085927 44 0 0.0 0.0 0.00 0.00 0.00 93 1012.1
20260507085426 44 0 0.0 0.0 0.00 0.00 0.00 92 1012.1
20260507084926 44 0 0.0 0.0 0.00 0.00 0.00 93 1012.2
20260507084426 44 0 0.0 0.0 0.00 0.00 0.00 92 1012.2
20260507083927 44 0 0.0 0.0 0.00 0.00 0.00 91 1012.2
20260507083426 45 0 0.0 0.0 0.00 0.00 0.00 91 1012.2
20260507082927 45 0 0.0 0.0 0.00 0.00 0.00 91 1012.2
20260507082427 45 0 0.0 0.0 0.00 0.00 0.00 91 1012.2
20260507081927 45 0 0.0 0.0 0.00 0.00 0.00 90 1012.2
20260507081427 45 0 0.0 0.0 0.00 0.00 0.00 90 1012.2
20260507080926 46 316 0.0 1.0 0.00 0.00 0.00 90 1012.2
20260507080427 46 0 0.0 0.0 0.00 0.00 0.00 89 1012.2
20260507075927 46 0 0.0 0.0 0.00 0.00 0.00 89 1012.2
20260507075427 46 0 0.0 0.0 0.00 0.00 0.00 90 1012.2
20260507074926 46 0 0.0 0.0 0.00 0.00 0.00 91 1012.2
20260507074427 46 0 0.0 0.0 0.00 0.00 0.00 91 1012.1
20260507073927 46 0 0.0 0.0 0.00 0.00 0.00 92 1012.1
20260507073426 46 0 0.0 0.0 0.00 0.00 0.00 93 1012.0
20260507072927 46 0 0.0 0.0 0.00 0.00 0.00 94 1012.0
20260507072427 45 0 0.0 0.0 0.00 0.00 0.00 95 1012.0
20260507071928 45 0 0.0 0.0 0.00 0.00 0.00 96 1012.0
20260507071427 45 0 0.0 0.0 0.00 0.00 0.00 96 1012.1
20260507070927 45 0 0.0 0.0 0.00 0.00 0.00 98 1012.0
20260507070426 45 0 0.0 0.0 0.00 0.00 0.00 98 1012.0
20260507065927 45 0 0.0 0.0 0.00 0.00 0.00 98 1012.0
20260507065428 45 0 0.0 0.0 0.00 0.00 0.00 98 1011.9
20260507064928 45 0 0.0 0.0 0.00 0.00 0.00 98 1011.9
20260507064428 45 0 0.0 0.0 0.00 0.00 0.00 97 1011.9
20260507063927 45 0 0.0 0.0 0.00 0.00 0.00 97 1012.0
20260507063428 45 0 0.0 0.0 0.00 0.00 0.00 97 1012.0
20260507062927 45 0 0.0 0.0 0.00 0.00 0.00 96 1012.2
20260507062426 45 0 0.0 0.0 0.00 0.00 0.00 96 1012.2
20260507061927 46 0 0.0 0.0 0.00 0.00 0.00 96 1012.1
20260507061426 46 0 0.0 0.0 0.00 0.00 0.00 96 1012.1
20260507060926 46 0 0.0 0.0 0.00 0.00 0.00 95 1012.1
20260507060427 46 0 0.0 0.0 0.00 0.00 0.00 95 1012.1
20260507055926 47 0 0.0 0.0 0.00 0.00 0.00 94 1012.1
20260507055426 47 0 0.0 0.0 0.00 0.00 0.00 93 1012.1
20260507054926 47 0 0.0 0.0 0.00 0.00 0.00 92 1012.1
20260507054427 47 0 0.0 0.0 0.00 0.00 0.00 91 1012.1
20260507053926 48 0 0.0 0.0 0.00 0.00 0.00 91 1012.1
20260507053426 48 0 0.0 0.0 0.00 0.00 0.00 91 1012.1
20260507052927 48 0 0.0 0.0 0.00 0.00 0.00 91 1012.1
20260507052426 48 0 0.0 0.0 0.00 0.00 0.00 92 1012.1
20260507051926 49 0 0.0 0.0 0.00 0.00 0.00 92 1012.0
20260507051426 49 0 0.0 0.0 0.00 0.00 0.00 93 1012.0
20260507050926 49 0 0.0 0.0 0.00 0.00 0.00 94 1012.1
20260507050426 49 0 0.0 0.0 0.00 0.00 0.00 96 1012.1
20260507045926 49 0 0.0 0.0 0.00 0.00 0.00 96 1012.0
20260507045427 49 0 0.0 0.0 0.00 0.00 0.00 97 1012.0
20260507044927 49 0 0.0 0.0 0.00 0.00 0.00 97 1011.8
20260507044426 49 0 0.0 0.0 0.00 0.00 0.00 98 1011.8
20260507043926 49 0 0.0 0.0 0.00 0.00 0.00 98 1011.7
20260507043426 49 0 0.0 0.0 0.00 0.00 0.00 98 1011.8
20260507042926 49 0 0.0 0.0 0.00 0.00 0.00 98 1011.7
20260507042426 49 0 0.0 0.0 0.00 0.00 0.00 98 1011.7
20260507041926 49 0 0.0 0.0 0.00 0.00 0.00 98 1011.7
20260507041428 49 173 0.0 0.0 0.00 0.00 0.00 98 1011.8
20260507040926 49 0 0.0 0.0 0.00 0.00 0.00 98 1011.8
20260507040426 49 0 0.0 0.0 0.00 0.00 0.00 99 1011.7
20260507035926 49 0 0.0 0.0 0.00 0.00 0.29 99 1011.5
20260507035426 49 0 0.0 0.0 0.00 0.00 0.29 99 1011.5
20260507034926 49 0 0.0 0.0 0.00 0.00 0.29 99 1011.5
20260507034427 49 0 0.0 0.0 0.00 0.00 0.29 99 1011.7
20260507033927 49 0 0.0 0.0 0.00 0.00 0.29 99 1011.7
20260507033427 49 0 0.0 0.0 0.00 0.00 0.29 99 1011.7
20260507032928 49 0 0.0 0.0 0.00 0.00 0.29 99 1011.7
20260507032426 49 0 0.0 0.0 0.00 0.00 0.29 98 1011.7
20260507031926 49 0 0.0 0.0 0.00 0.00 0.29 98 1011.8
20260507031426 49 0 0.0 0.0 0.00 0.00 0.29 98 1011.6
20260507030926 49 0 0.0 0.0 0.00 0.00 0.29 98 1011.7
20260507030427 49 0 0.0 0.0 0.00 0.00 0.29 98 1011.5
20260507025926 50 0 0.0 0.0 0.00 0.00 0.29 97 1011.5
20260507025426 50 0 0.0 0.0 0.00 0.00 0.29 97 1011.3
20260507024926 50 0 0.0 0.0 0.00 0.00 0.29 96 1011.4
20260507024426 50 0 0.0 0.0 0.00 0.00 0.29 96 1011.5
20260507023926 51 0 0.0 0.0 0.00 0.00 0.29 96 1011.6
20260507023426 51 0 0.0 0.0 0.00 0.00 0.29 95 1011.5
20260507022926 51 0 0.0 0.0 0.00 0.00 0.29 94 1011.4
20260507022426 51 0 0.0 0.0 0.00 0.00 0.29 94 1011.5
20260507021926 52 0 0.0 0.0 0.00 0.00 0.29 93 1011.7
20260507021427 52 0 0.0 0.0 0.00 0.00 0.29 93 1011.8
20260507020926 52 0 0.0 0.0 0.00 0.00 0.29 93 1011.9
20260507020426 52 0 0.0 0.0 0.00 0.00 0.29 93 1011.9
20260507015926 52 0 0.0 0.0 0.00 0.00 0.29 93 1011.9
20260507015427 52 0 0.0 0.0 0.00 0.00 0.29 92 1012.1
20260507014926 52 0 0.0 0.0 0.00 0.00 0.29 92 1011.9
20260507014426 52 34 0.0 0.0 0.00 0.00 0.29 92 1011.9
20260507013926 52 0 0.0 0.0 0.00 0.00 0.29 92 1012.0
20260507013428 53 0 0.0 0.0 0.00 0.00 0.29 92 1012.0
20260507012927 53 0 0.0 0.0 0.00 0.00 0.29 92 1011.8
20260507012427 53 0 0.0 0.0 0.00 0.00 0.29 92 1011.8
20260507011926 53 0 0.0 0.0 0.00 0.00 0.29 90 1011.8
20260507011426 53 0 0.0 0.0 0.00 0.00 0.29 91 1012.1
20260507010927 53 0 0.0 0.0 0.00 0.00 0.29 92 1012.0
20260507010428 53 0 0.0 0.0 0.00 0.00 0.29 92 1012.0
20260507005926 53 0 0.0 0.0 0.00 0.00 0.29 93 1011.8
20260507005426 53 0 0.0 0.0 0.00 0.00 0.29 93 1011.6
20260507004926 53 0 0.0 0.0 0.00 0.00 0.29 93 1011.6
20260507004426 53 0 0.0 0.0 0.00 0.00 0.29 93 1011.5
20260507003926 53 0 0.0 0.0 0.00 0.00 0.29 93 1011.5
20260507003426 53 0 0.0 0.0 0.00 0.00 0.29 93 1011.4
20260507002926 53 0 0.0 0.0 0.00 0.00 0.29 93 1011.3
20260507002427 53 0 0.0 0.0 0.00 0.00 0.29 92 1011.2
20260507001926 53 0 0.0 0.0 0.00 0.00 0.29 92 1011.1
20260507001426 53 0 0.0 0.0 0.00 0.00 0.29 91 1011.0
20260507000927 53 0 0.0 0.0 0.00 0.00 0.29 91 1011.0
20260507000427 53 0 0.0 0.0 0.00 0.00 0.29 90 1010.9
20260506235926 53 0 0.0 0.0 0.00 0.00 0.29 90 1010.7
20260506235426 53 0 0.0 0.0 0.00 0.00 0.29 90 1010.5
20260506234927 53 0 0.0 0.0 0.00 0.00 0.29 90 1010.5
20260506234426 53 42 0.0 0.0 0.00 0.00 0.29 90 1010.6
20260506233928 53 0 0.0 0.0 0.00 0.00 0.29 89 1010.5
20260506233426 53 0 0.0 0.0 0.00 0.00 0.29 89 1010.3
20260506232927 53 0 0.0 0.0 0.00 0.00 0.29 90 1010.2
20260506232426 54 81 0.0 1.0 0.00 0.00 0.29 90 1010.2
20260506231927 54 0 0.0 0.0 0.00 0.00 0.29 90 1010.3
20260506231426 54 0 0.0 0.0 0.00 0.00 0.29 90 1010.3
20260506230926 54 0 0.0 0.0 0.00 0.00 0.29 90 1010.3
20260506230427 54 0 0.0 0.0 0.00 0.00 0.29 90 1010.1
20260506225927 54 0 0.0 0.0 0.00 0.00 0.29 90 1010.1
20260506225426 54 20 0.0 1.0 0.00 0.00 0.29 90 1010.1
20260506224926 54 0 0.0 0.0 0.00 0.00 0.29 89 1010.0
20260506224426 54 0 0.0 0.0 0.00 0.00 0.29 90 1010.0
20260506223926 54 0 0.0 0.0 0.00 0.00 0.29 90 1010.0
20260506223426 54 0 0.0 0.0 0.00 0.00 0.29 90 1010.0
20260506222926 54 52 0.0 0.0 0.00 0.00 0.29 90 1010.0
20260506222426 54 218 0.0 1.0 0.00 0.00 0.29 90 1010.0
20260506221927 54 228 0.0 0.0 0.00 0.00 0.29 89 1010.0
20260506221426 54 217 0.0 2.0 0.00 0.00 0.29 89 1009.9
20260506220927 54 324 0.0 1.0 0.00 0.00 0.29 90 1009.8
20260506220427 55 270 1.0 2.0 0.00 0.00 0.29 90 1009.8
20260506215926 55 233 0.0 0.0 0.00 0.00 0.29 90 1009.7
20260506215427 55 229 1.0 3.0 0.00 0.00 0.29 90 1009.7
20260506214926 55 330 1.0 2.0 0.00 0.00 0.29 90 1009.5
20260506214426 55 310 0.0 2.0 0.00 0.00 0.29 91 1009.3
20260506213926 55 0 0.0 0.0 0.00 0.00 0.29 91 1009.2
20260506213426 55 247 1.0 2.0 0.01 0.00 0.29 91 1009.1
20260506212927 55 242 0.0 0.0 0.01 0.00 0.29 90 1008.9
20260506212426 55 311 0.0 0.0 0.01 0.00 0.29 91 1008.7
20260506211926 56 329 1.0 2.0 0.01 0.00 0.29 92 1008.7
20260506211426 56 0 0.0 0.0 0.01 0.00 0.29 92 1008.7
20260506210927 56 279 1.0 1.0 0.01 0.00 0.29 94 1008.6
20260506210426 56 320 0.0 1.0 0.01 0.00 0.29 94 1008.5
20260506205927 56 0 0.0 0.0 0.01 0.00 0.29 95 1008.5
20260506205426 56 0 0.0 0.0 0.00 0.00 0.29 95 1008.3
20260506204927 56 262 0.0 1.0 0.00 0.00 0.29 95 1008.2
20260506204427 56 0 0.0 0.0 0.00 0.00 0.29 95 1008.1
20260506203926 56 243 0.0 1.0 0.00 0.00 0.29 95 1008.0
20260506203426 57 205 1.0 1.0 0.00 0.00 0.29 95 1007.8
20260506202926 58 197 1.0 2.0 0.00 0.00 0.29 94 1007.5
20260506202427 58 0 0.0 0.0 0.00 0.00 0.29 94 1007.3
20260506201926 59 195 0.0 1.0 0.00 0.00 0.28 92 1007.2
20260506201427 60 351 1.0 2.0 0.00 0.00 0.28 91 1007.1
20260506200926 61 226 1.0 3.0 0.00 0.00 0.28 88 1007.0
20260506200427 63 213 4.0 6.0 0.00 0.00 0.28 86 1007.1
20260506195926 63 206 0.0 0.0 0.00 0.00 0.28 90 1006.7
20260506195429 63 31 0.0 1.0 0.00 0.00 0.28 90 1006.6
20260506194926 63 265 1.0 2.0 0.00 0.00 0.28 90 1006.6
20260506194427 63 0 0.0 0.0 0.00 0.00 0.28 91 1006.7
20260506193927 63 0 0.0 0.0 0.00 0.00 0.28 92 1006.7
20260506193428 63 0 0.0 0.0 0.00 0.00 0.28 93 1006.7
20260506192928 63 0 0.0 0.0 0.00 0.00 0.28 93 1006.7
20260506192427 63 257 1.0 2.0 0.00 0.00 0.28 93 1006.8
20260506191928 63 0 0.0 0.0 0.00 0.00 0.28 94 1006.8
20260506191428 63 244 0.0 0.0 0.00 0.00 0.28 94 1006.7
20260506190929 63 248 4.0 4.0 0.00 0.00 0.28 93 1006.6
20260506190428 63 219 0.0 0.0 0.00 0.00 0.28 95 1006.6
20260506185927 63 262 2.0 2.0 0.00 0.00 0.28 94 1006.7
20260506185426 63 237 0.0 1.0 0.00 0.00 0.28 94 1006.8
20260506184926 63 0 0.0 0.0 0.00 0.00 0.28 94 1006.7
20260506184426 63 0 0.0 0.0 0.00 0.00 0.28 94 1006.8
20260506183926 63 351 1.0 2.0 0.00 0.00 0.28 94 1006.7
20260506183426 63 0 0.0 0.0 0.00 0.00 0.28 95 1006.6
20260506182927 63 0 0.0 0.0 0.00 0.00 0.28 95 1006.5
20260506182427 63 243 1.0 1.0 0.00 0.00 0.28 94 1006.5
20260506181927 63 313 0.0 0.0 0.00 0.00 0.28 95 1006.5
20260506181426 62 309 0.0 0.0 0.00 0.00 0.28 95 1006.6
20260506180926 62 0 0.0 0.0 0.00 0.00 0.28 94 1006.6
20260506180426 63 0 0.0 0.0 0.00 0.00 0.28 94 1006.7
20260506175926 63 0 0.0 0.0 0.00 0.00 0.28 94 1006.7
20260506175428 63 346 0.0 0.0 0.00 0.00 0.28 94 1006.6
20260506174929 62 0 0.0 0.0 0.00 0.00 0.28 95 1006.6
20260506174427 62 0 0.0 0.0 0.00 0.00 0.28 95 1006.7
20260506173927 62 0 0.0 0.0 0.00 0.00 0.28 95 1006.6
20260506173427 62 0 0.0 0.0 0.00 0.00 0.28 94 1006.6
20260506172927 62 0 0.0 0.0 0.00 0.00 0.28 95 1006.6
20260506172426 61 25 0.0 1.0 0.00 0.00 0.28 94 1006.6
20260506171927 61 33 0.0 1.0 0.00 0.00 0.28 95 1006.6
20260506171426 61 0 0.0 0.0 0.00 0.00 0.28 94 1006.6
20260506170926 61 8 1.0 2.0 0.00 0.00 0.28 94 1006.7
20260506170427 61 51 0.0 1.0 0.00 0.00 0.28 94 1006.7
20260506165926 62 0 0.0 0.0 0.00 0.00 0.28 95 1006.8
20260506165427 62 0 0.0 0.0 0.00 0.00 0.28 96 1006.9
20260506164927 61 0 0.0 0.0 0.00 0.00 0.28 96 1006.9
20260506164427 61 0 0.0 0.0 0.00 0.00 0.28 97 1006.9
20260506163926 60 0 0.0 0.0 0.00 0.00 0.28 97 1006.8
20260506163426 60 0 0.0 0.0 0.00 0.00 0.28 97 1006.9
20260506162927 60 0 0.0 0.0 0.00 0.00 0.28 98 1006.9
20260506162427 60 0 0.0 0.0 0.00 0.00 0.28 98 1006.9
20260506161926 59 0 0.0 0.0 0.00 0.00 0.28 98 1007.0
20260506161427 59 0 0.0 0.0 0.00 0.00 0.28 97 1007.0
20260506160928 59 78 2.0 2.0 0.00 0.00 0.28 98 1006.9
20260506160427 59 68 1.0 2.0 0.00 0.00 0.28 98 1006.9
20260506155926 59 53 0.0 1.0 0.00 0.00 0.28 99 1006.9
20260506155427 59 0 0.0 0.0 0.01 0.00 0.28 99 1007.0
20260506154926 59 0 0.0 0.0 0.01 0.00 0.28 99 1007.1
20260506154427 59 0 0.0 0.0 0.02 0.00 0.28 99 1007.0
20260506153926 59 0 0.0 0.0 0.03 0.00 0.28 99 1006.9
20260506153427 59 0 0.0 0.0 0.03 0.00 0.28 99 1007.0
20260506152926 59 0 0.0 0.0 0.03 0.00 0.28 99 1006.9
20260506152427 59 0 0.0 0.0 0.03 0.00 0.28 99 1006.8
20260506151927 58 21 1.0 2.0 0.03 0.00 0.28 98 1006.7
20260506151426 58 80 1.0 1.0 0.04 0.00 0.28 98 1006.7
20260506150926 58 67 0.0 1.0 0.04 0.00 0.28 98 1006.7
20260506150429 58 79 1.0 2.0 0.04 0.00 0.28 98 1006.8
20260506145928 58 87 1.0 1.0 0.04 0.00 0.28 98 1006.9
20260506145427 58 0 0.0 0.0 0.04 0.00 0.28 99 1006.9
20260506144928 58 127 0.0 1.0 0.04 0.00 0.28 99 1006.9
20260506144428 58 0 0.0 0.0 0.04 0.00 0.27 98 1006.9
20260506143926 58 57 1.0 2.0 0.04 0.00 0.27 98 1007.0
20260506143426 58 0 0.0 0.0 0.04 0.00 0.26 99 1007.0
20260506142927 58 0 0.0 0.0 0.04 0.00 0.26 98 1006.9
20260506142426 58 0 0.0 0.0 0.04 0.00 0.26 97 1006.7
20260506141926 58 0 0.0 0.0 0.04 0.00 0.26 98 1006.8
20260506141427 58 0 0.0 0.0 0.03 0.00 0.26 98 1006.8
20260506140927 58 0 0.0 0.0 0.03 0.00 0.26 97 1006.9
20260506140427 58 25 2.0 2.0 0.03 0.00 0.25 96 1006.8
20260506135927 59 0 0.0 0.0 0.03 0.00 0.24 98 1006.7
20260506135426 59 0 0.0 0.0 0.03 0.00 0.24 99 1006.9
20260506134926 59 0 0.0 0.0 0.04 0.00 0.23 99 1007.0
20260506134426 58 0 0.0 0.0 0.04 0.00 0.23 99 1007.0
20260506133927 58 111 0.0 0.0 0.05 0.00 0.22 99 1007.0
20260506133427 58 0 0.0 0.0 0.07 0.00 0.22 98 1007.1
20260506132927 58 82 0.0 1.0 0.07 0.00 0.22 98 1007.0
20260506132427 58 90 1.0 2.0 0.09 0.00 0.22 98 1007.0
20260506131926 58 54 0.0 0.0 0.09 0.00 0.22 97 1007.0
20260506131426 58 40 1.0 1.0 0.09 0.00 0.22 98 1007.0
20260506130926 58 71 0.0 2.0 0.10 0.00 0.22 99 1006.8
20260506130428 58 45 2.0 2.0 0.09 0.00 0.21 99 1006.9
20260506125926 58 59 1.0 2.0 0.09 0.00 0.21 99 1006.9
20260506125426 58 75 2.0 2.0 0.08 0.00 0.20 99 1006.9
20260506124927 58 0 0.0 0.0 0.08 0.00 0.19 99 1006.9
20260506124427 58 117 1.0 2.0 0.06 0.00 0.19 99 1007.0
20260506123927 58 81 1.0 2.0 0.06 0.00 0.18 99 1007.2
20260506123426 58 37 2.0 3.0 0.05 0.00 0.17 100 1007.1
20260506122926 58 58 1.0 1.0 0.05 0.00 0.16 99 1007.3
20260506122426 58 0 0.0 0.0 0.03 0.00 0.15 99 1007.7
20260506121926 58 0 0.0 0.0 0.03 0.00 0.15 99 1007.7
20260506121426 58 82 1.0 2.0 0.03 0.00 0.14 99 1007.6
20260506120926 58 69 0.0 2.0 0.03 0.00 0.13 99 1007.8
20260506120427 58 0 0.0 0.0 0.03 0.00 0.12 99 1007.7
20260506115927 58 72 2.0 2.0 0.03 0.00 0.12 99 1007.6
20260506115426 58 75 2.0 2.0 0.03 0.00 0.11 99 1007.3
20260506114927 58 63 1.0 2.0 0.04 0.00 0.11 99 1007.1
20260506114426 58 77 2.0 2.0 0.04 0.00 0.11 99 1007.2
20260506113927 58 48 2.0 3.0 0.04 0.00 0.11 99 1007.1
20260506113428 58 75 2.0 2.0 0.04 0.00 0.10 99 1007.1
20260506112929 58 80 1.0 1.0 0.05 0.00 0.10 99 1007.1
20260506112429 58 79 1.0 2.0 0.05 0.00 0.10 99 1007.1
20260506111928 58 107 0.0 1.0 0.05 0.00 0.11 99 1007.0
20260506111428 58 96 1.0 2.0 0.05 0.00 0.11 99 1007.0
20260506110929 58 69 1.0 1.0 0.05 0.00 0.11 99 1007.0
20260506110428 58 30 0.0 1.0 0.05 0.00 0.11 100 1007.0
20260506105927 58 58 1.0 2.0 0.04 0.00 0.10 100 1006.9
20260506105427 58 71 1.0 2.0 0.03 0.00 0.10 100 1007.0